[[{"header":{"parameterUnit":"m.s-1","parameterCategory":1,"la1":30.2991,"la2":30.254,"lo1":-89.0895,"lo2":-89.0444,"dy":0.0017,"dx":0.0017,"nx":28,"ny":28,"refTime":"2024-08-23T21:00:00:Z","depth":0,"parameterNumber":2,"parameterNumberName":"U-component_of_WINDS"},"data":[0,0,0,0,0,0,0,0,0,0,0,0,0,0,0,0,0,0,0,0,0,0,0,0,0,0,0,0,0,0,0,0,0,0,0,0,0,0,0,0,0,0,0,0,0,0,0,0,0,0,0,0,0,0,0,0,0,0,-1.9597,-1.9597,0,-1.96,-1.96,-1.9601,-1.9532,-1.953,-1.9528,-1.9526,-1.9537,-1.9538,-1.954,0,0,0,0,0,0,0,0,0,0,0,0,0,-1.9536,-1.9538,-1.9597,-1.9597,-1.9597,-1.96,-1.96,-1.9601,-1.9532,-1.953,-1.9527,-1.9525,-1.9536,-1.9538,-1.9541,0,0,0,0,0,0,0,0,0,0,0,0,0,-1.9554,-1.9538,-1.9597,-1.9563,-1.956,-1.96,-1.96,-1.9601,-1.9532,-1.953,-1.9527,-1.9524,-1.9535,-1.9538,-1.9541,-1.9616,0,0,-1.955,-1.9552,0,0,0,0,0,0,0,0,-1.9553,-1.9556,-1.9568,-1.9565,-1.9562,-1.9563,-1.9583,-1.9606,-1.9533,-1.9543,-1.9526,-1.9523,-1.9548,-1.955,-1.9557,-1.9617,-1.9617,-1.9551,-1.9552,-1.9554,-1.9555,0,0,0,0,0,0,0,-1.9552,-1.9555,-1.9598,-1.9568,-1.9565,-1.9549,-1.9549,-1.9587,-1.9562,-1.9542,-1.9537,-1.9538,-1.9546,-1.9554,-1.9557,-1.9617,-1.955,-1.9553,-1.9555,-1.9556,-1.974,-1.9742,0,0,0,0,0,0,-1.9554,-1.9555,-1.9598,-1.9599,-1.955,-1.9553,-1.9552,-1.9565,-1.9561,-1.9557,-1.954,-1.9535,-1.955,-1.9553,-1.9557,-1.9645,-1.9554,-1.9556,-1.9558,-1.9737,-1.974,-1.9744,0,0,0,0,0,0,-1.9553,-1.9559,-1.9598,-1.9575,-1.9579,-1.9557,-1.9572,-1.9567,-1.9575,-1.9559,-1.9555,-1.9553,-1.9548,-1.9552,-1.9601,-1.9645,-1.9558,-1.9561,-1.9733,-1.9738,-1.9742,-1.9823,0,0,0,0,0,0,-1.9552,-1.9559,-1.9586,-1.9576,-1.9581,-1.9642,-1.9575,-1.9569,-1.958,-1.9572,-1.957,-1.9567,-1.9546,-1.9597,-1.9605,-1.9647,-1.9563,-1.9729,-1.9735,-1.974,-1.9816,-1.983,-1.9841,0,0,0,0,0,-1.955,-1.961,-1.9588,-1.9593,-1.9614,-1.9644,-1.9647,-1.9619,-1.9583,-1.9611,-1.9601,-1.9567,-1.9638,-1.9603,-1.961,-1.9655,-1.9726,-1.9733,-1.974,-1.9811,-1.9827,-1.9841,0,0,0,0,0,0,-1.9628,-1.9608,-1.9583,-1.9642,-1.9645,-1.9632,-1.9667,-1.9637,-1.9653,-1.9646,-1.9613,-1.9613,-1.9668,-1.9666,-1.9627,-1.9728,-1.9676,-1.9685,-1.9727,-1.9743,-1.9755,-1.9756,-1.9566,0,0,0,0,0,-1.9651,-1.9676,-1.9658,-1.9711,-1.9714,-1.969,-1.9702,-1.9681,-1.9684,-1.9686,-1.9679,-1.9685,-1.9708,-1.9725,-1.9746,-1.9814,-1.9814,-1.9849,-1.9861,-1.9871,-1.988,-1.9918,-1.9934,-1.9766,-1.9766,-1.9766,0,0,-1.9701,-1.9693,-1.9711,-1.9727,-1.9726,-1.9755,-1.9692,-1.9724,-1.9746,-1.9691,-1.9737,-1.9732,-1.9737,-1.9797,-1.9822,-1.9797,-1.9926,-1.988,-1.9888,-1.9892,-1.9927,-1.9943,-1.9957,-1.9771,-1.977,-1.9769,0,0,-1.9807,-1.9802,-1.9846,-1.9847,-1.9847,-1.983,-1.9841,-1.9833,-1.9827,-1.9872,-1.9832,-1.9857,-1.9898,-1.9903,-1.9911,-2.0017,-1.9987,-2.0025,-2.0091,-2.0128,-2.0141,-2.0153,-2.0193,-2.0207,-2.0033,-2.0033,-2.0033,0,-1.987,-1.9908,-1.9874,-1.9908,-1.9917,-1.9866,-1.9912,-1.9915,-1.9922,-1.9931,-1.99,-1.995,-1.995,-2.001,-2.0036,-2.0043,-2.0057,-2.0026,-2.0141,-2.0153,-2.0163,-2.0201,-2.0216,-2.0038,-2.0037,-2.0037,-2.0036,0,-1.9987,-2.0014,-2.005,-2.0056,-2.0069,-2.0109,-2.0082,-2.0099,-2.0076,-2.0063,-2.011,-2.0107,-2.0127,-2.0139,-2.0117,-2.0197,-2.0181,-2.0147,-2.0095,-2.0184,-2.022,-2.0234,-2.0045,-2.0043,-2.0041,-2.004,0,0,-2.0144,-2.0129,-2.0143,-2.0146,-2.0141,-2.0163,-2.0201,-2.0217,-2.0234,-2.024,-2.0273,-2.0308,-2.0275,-2.0285,-2.0263,-2.0295,-2.0382,-2.0257,-2.0256,-2.0282,-2.0472,-2.05,-2.0517,-2.036,-2.0363,-2.0365,-2.0472,0,-2.0249,-2.0311,-2.0281,-2.0348,-2.0374,-2.0325,-2.0359,-2.036,-2.0349,-2.0371,-2.0359,-2.0385,-2.034,-2.0345,-2.0374,-2.0365,-2.042,-2.0356,-2.0394,-2.0395,-2.0397,-2.0535,-2.0565,-2.0666,-2.0485,-2.0488,-2.0489,0,-2.0379,-2.0389,-2.0459,-2.0449,-2.0459,-2.0489,-2.0502,-2.0523,-2.0524,-2.0514,-2.0523,-2.0494,-2.0532,-2.0478,-2.0533,-2.049,-2.0503,-2.0501,-2.0504,-2.0509,-2.045,-2.0546,-2.0698,-2.0714,-2.051,-2.0508,-2.0507,0,-2.049,-2.0521,-2.0566,-2.057,-2.0559,-2.0582,-2.0579,-2.0577,-2.0589,-2.06,-2.0608,-2.0625,-2.0635,-2.065,-2.0627,-2.0589,-2.0685,-2.0629,-2.068,-2.0681,-2.0706,-2.0705,-2.0864,-2.0709,-2.0709,-2.0709,-2.0708,0,-2.0612,-2.0657,-2.0616,-2.0645,-2.0694,-2.0659,-2.0709,-2.0701,-2.07,-2.0727,-2.0685,-2.0713,-2.0678,-2.0703,-2.0685,-2.0734,-2.0738,-2.0733,-2.0728,-2.0738,-2.074,-2.0749,-2.0743,-2.0713,-2.0712,-2.0711,-2.071,0,-2.0746,-2.072,-2.0767,-2.0751,-2.0749,-2.0786,-2.0774,-2.0801,-2.0786,-2.0821,-2.0828,-2.0805,-2.0831,-2.0808,-2.0835,-2.0822,-2.0888,-2.0872,-2.0888,-2.0884,-2.0938,-2.0934,-2.1111,-2.1134,-2.0962,-2.0963,-2.0965,0,-2.0827,-2.086,-2.0847,-2.0862,-2.0861,-2.0884,-2.0896,-2.0862,-2.0876,-2.0879,-2.0906,-2.0928,-2.0945,-2.099,-2.0977,-2.0997,-2.0983,-2.1043,-2.0986,-2.0996,-2.0987,-2.0987,-2.0991,-2.1056,-2.1058,-2.106,-2.1061,0,-2.0974,-2.0958,-2.0975,-2.0988,-2.1002,-2.1011,-2.1016,-2.1031,-2.0996,-2.1014,-2.1039,-2.1052,-2.1077,-2.1101,-2.1117,-2.1115,-2.1085,-2.1079,-2.1092,-2.1105,-2.1114,-2.1112,-2.0923,-2.1076,-2.1074,-2.1073,-2.1073,-2.1072,-2.1085,-2.1113,-2.1108,-2.1128,-2.1128,-2.1134,-2.1159,-2.1146,-2.1165,-2.1182,-2.1161,-2.1193,-2.1193,-2.121,-2.1213,-2.1239,-2.1214,-2.1233,-2.1238,-2.1244,-2.1253,-2.1106,-2.1241,-2.1241,-2.124,-2.124,-2.124,0,-2.1232,-2.1226,-2.1245,-2.1253,-2.1269,-2.1234,-2.1238,-2.1255,-2.1283,-2.1285,-2.1301,-2.1331,-2.1353,-2.1341,-2.1361,-2.1384,-2.137,-2.1391,-2.1391,-2.1391,-2.1273,-2.1261,-2.1402,-2.1402,-2.1402,-2.1402,-2.1402,-2.1402,-2.1311,-2.1356,-2.134,-2.1385,-2.1379,-2.1408,-2.1414,-2.142,-2.1421,-2.1456,-2.1473,-2.1464,-2.1461,-2.148,-2.15,-2.1496,-2.1507,-2.1533,-2.1525,-2.1415,-2.1399,-2.1384,-2.1373,-2.1535,-2.1535,-2.1641,-2.1642,-2.1643]},{"header":{"parameterUnit":"m.s-1","parameterCategory":1,"la1":30.2991,"la2":30.254,"lo1":-89.0895,"lo2":-89.0444,"dy":0.0017,"dx":0.0017,"nx":28,"ny":28,"refTime":"2024-08-23T21:00:00:Z","depth":0,"parameterNumber":3,"parameterNumberName":"V-component_of_WINDS"},"data":[0,0,0,0,0,0,0,0,0,0,0,0,0,0,0,0,0,0,0,0,0,0,0,0,0,0,0,0,0,0,0,0,0,0,0,0,0,0,0,0,0,0,0,0,0,0,0,0,0,0,0,0,0,0,0,0,0,0,1.4301,1.4299,0,1.4123,1.4121,1.4119,1.4036,1.4036,1.4036,1.4036,1.3844,1.3839,1.3834,0,0,0,0,0,0,0,0,0,0,0,0,0,1.456,1.4556,1.4301,1.4299,1.4297,1.4124,1.4121,1.4119,1.4036,1.4036,1.4036,1.4036,1.3846,1.384,1.3833,0,0,0,0,0,0,0,0,0,0,0,0,0,1.4421,1.4555,1.4301,1.4235,1.4227,1.4124,1.4121,1.4118,1.4036,1.4036,1.4036,1.4036,1.3848,1.384,1.3832,1.378,0,0,1.3808,1.3805,0,0,0,0,0,0,0,0,1.4429,1.4412,1.4247,1.4239,1.423,1.4102,1.4142,1.4004,1.4036,1.4108,1.4036,1.4036,1.3929,1.3915,1.388,1.3771,1.3762,1.3808,1.3803,1.3799,1.3797,0,0,0,0,0,0,0,1.4439,1.4419,1.423,1.4244,1.4234,1.4211,1.4191,1.4116,1.4019,1.4102,1.4095,1.4076,1.3924,1.3888,1.3875,1.3759,1.3808,1.3801,1.3796,1.3793,1.3598,1.3598,0,0,0,0,0,0,1.4461,1.4428,1.4236,1.4225,1.4333,1.4206,1.4184,1.4143,1.402,1.4001,1.4076,1.4073,1.3902,1.3885,1.3868,1.3798,1.38,1.3792,1.3788,1.3599,1.3598,1.3598,0,0,0,0,0,0,1.4467,1.4445,1.4243,1.4325,1.4297,1.4201,1.4155,1.4139,1.4103,1.4001,1.3982,1.4057,1.3901,1.3879,1.3803,1.3791,1.3789,1.3781,1.3599,1.3598,1.3598,1.3659,0,0,0,0,0,0,1.4475,1.4447,1.4428,1.4325,1.4293,1.4184,1.4155,1.4136,1.4091,1.4085,1.3978,1.396,1.39,1.3815,1.3795,1.378,1.3775,1.36,1.3599,1.3598,1.3658,1.3661,1.3663,0,0,0,0,0,1.4484,1.445,1.4427,1.4405,1.4268,1.4183,1.4165,1.4098,1.409,1.4069,1.4003,1.3964,1.3796,1.3808,1.3785,1.3767,1.36,1.3599,1.3598,1.3656,1.366,1.3663,0,0,0,0,0,0,1.4549,1.4435,1.4409,1.434,1.4273,1.4169,1.414,1.4104,1.4034,1.4031,1.3949,1.3926,1.3857,1.3804,1.382,1.371,1.3694,1.3689,1.3747,1.3749,1.3752,1.3765,1.3769,0,0,0,0,0,1.4557,1.45,1.4402,1.4351,1.4319,1.4236,1.4197,1.4152,1.4077,1.4047,1.3975,1.3902,1.3832,1.3788,1.3718,1.3651,1.3625,1.3627,1.3629,1.3632,1.3627,1.3588,1.3587,1.3594,1.3594,1.3594,0,0,1.4569,1.4499,1.4468,1.4363,1.4305,1.4246,1.4212,1.4151,1.4106,1.4036,1.3961,1.3907,1.3819,1.3747,1.3712,1.3701,1.362,1.3631,1.3634,1.3627,1.3587,1.3586,1.3586,1.3594,1.3594,1.3594,0,0,1.4562,1.4505,1.4456,1.44,1.4315,1.4261,1.425,1.4152,1.4115,1.4039,1.3986,1.393,1.3812,1.3752,1.3706,1.3681,1.3641,1.366,1.3673,1.3636,1.3635,1.3634,1.3624,1.3622,1.3656,1.3656,1.3656,0,1.4587,1.4499,1.4435,1.4378,1.4333,1.4272,1.4222,1.4169,1.4064,1.4033,1.4024,1.3877,1.3813,1.3727,1.3721,1.3686,1.3669,1.3671,1.3641,1.3639,1.3637,1.3627,1.3624,1.3659,1.3659,1.3659,1.3658,0,1.4535,1.4475,1.4446,1.4351,1.4302,1.4249,1.4174,1.4133,1.4093,1.404,1.3963,1.3886,1.38,1.3776,1.3735,1.3684,1.3681,1.3658,1.364,1.3641,1.363,1.3625,1.3663,1.3662,1.3661,1.3661,0,0,1.456,1.4433,1.4423,1.438,1.4283,1.4234,1.4178,1.4098,1.4064,1.3994,1.3944,1.3848,1.3827,1.3775,1.3727,1.3694,1.3679,1.3675,1.3671,1.3677,1.3617,1.3635,1.3631,1.3654,1.3653,1.3652,1.3625,0,1.4538,1.4438,1.438,1.4302,1.4246,1.4189,1.414,1.4074,1.4023,1.3966,1.3908,1.3841,1.3819,1.3787,1.3753,1.3689,1.3666,1.369,1.3603,1.3601,1.3626,1.3625,1.3642,1.362,1.362,1.3619,1.3618,0,1.4499,1.4435,1.4354,1.4266,1.424,1.4197,1.412,1.4067,1.3991,1.3956,1.3901,1.3854,1.379,1.378,1.369,1.3709,1.367,1.3633,1.3631,1.3618,1.3608,1.3611,1.3611,1.3608,1.3611,1.3612,1.3612,0,1.4525,1.4418,1.4356,1.4321,1.4216,1.4188,1.4142,1.4067,1.4024,1.3956,1.3926,1.3851,1.3809,1.375,1.3684,1.3683,1.3601,1.3585,1.3568,1.3569,1.355,1.3552,1.3543,1.3529,1.3529,1.3529,1.3529,0,1.4506,1.4458,1.4367,1.4328,1.4273,1.4206,1.4152,1.4101,1.4036,1.3984,1.393,1.3883,1.3799,1.374,1.3688,1.3621,1.3603,1.3571,1.3557,1.3575,1.3579,1.3547,1.3546,1.3528,1.3528,1.3529,1.3529,0,1.4524,1.4462,1.439,1.4299,1.4275,1.4238,1.4158,1.4117,1.4066,1.4002,1.3983,1.3899,1.3828,1.3758,1.366,1.3625,1.3559,1.3542,1.3586,1.3578,1.3565,1.3567,1.3533,1.3525,1.3519,1.3519,1.3519,0,1.4515,1.4478,1.4384,1.4348,1.4305,1.4247,1.4204,1.4137,1.4094,1.4007,1.3976,1.3903,1.3839,1.3728,1.3657,1.3583,1.3562,1.3556,1.355,1.357,1.356,1.3563,1.3558,1.3557,1.3557,1.3558,1.3558,0,1.4506,1.4478,1.4419,1.4351,1.4302,1.4244,1.4183,1.4156,1.4077,1.4031,1.396,1.3912,1.3815,1.3742,1.366,1.361,1.357,1.3561,1.3553,1.3569,1.3597,1.3581,1.3591,1.3561,1.3561,1.3561,1.3561,1.356,1.4509,1.4474,1.4403,1.434,1.4289,1.4234,1.4193,1.4137,1.4078,1.3997,1.3961,1.389,1.3815,1.3702,1.3654,1.3595,1.3584,1.3573,1.3569,1.3567,1.3571,1.3609,1.358,1.358,1.3579,1.3579,1.3579,0,1.4496,1.4449,1.4392,1.4312,1.4262,1.4235,1.4167,1.4126,1.4065,1.4001,1.3942,1.3861,1.379,1.3716,1.3641,1.3608,1.3588,1.359,1.3591,1.358,1.3585,1.3599,1.3608,1.3608,1.3608,1.3608,1.3608,1.3608,1.4483,1.4422,1.4386,1.4299,1.4251,1.4184,1.4148,1.4097,1.4046,1.3959,1.3902,1.3856,1.3787,1.3707,1.364,1.362,1.3594,1.3601,1.3576,1.3581,1.3579,1.3577,1.359,1.3597,1.3597,1.3575,1.3574,1.3574]}]]